Flag for Montenegro Weather past 2 weeks in Podgorica, Montenegro

Now
75 °F

Clear.


Feels Like: 78 °F
Forecast: 72 / 93 °F
Wind: 12 mph from North

Location: Podgorica Titograd

Current Time: Aug 29, 2014 at 3:53:22 AM

Latest Report: Aug 29, 2014 at 3:00 AM


Visibility: 10 mi

Pressure: 29.95 "Hg

Humidity: 41%

Dew point: 50 °F

Location of PodgoricaLocation

Historic Weather in Podgorica — Graph

°F

Podgorica temperature yesterday

Maximum temperature yesterday: 91 °F (at 3:00 PM)
Minimum temperature yesterday: 72 °F (at 12:30 AM)
Average temperature yesterday: 81 °F

Past Weeks' High & Low Weather Summary

 TemperatureHumidityPressure
High95 °F (Aug 14, 2:30 PM)100% (Aug 22, 6:30 AM)30.01 "Hg (Aug 22, 6:30 AM)
Low64 °F (Aug 18, 5:00 AM)19% (Aug 19, 3:00 PM)29.77 "Hg (Aug 14, 5:00 PM)
Average78 °F56%29.92 "Hg
* Reported Aug 14 2:00 AM — Aug 29 2:30 AM, Podgorica, Weather by CustomWeather, © 2014

Note: Actual official high and low records may vary slightly from our data, if they occured in-between our weather recording intervals... More about our weather records

Advertising

Podgorica weather history for previous 24 hours

 ConditionsComfort  
Time TempWeatherWind HumidityBarometerVisibility
2:30 AM
Aug 29
75 °FClear.9 mph41%29.95 "Hg10 mi
2:00 AM75 °FClear.12 mph41%29.95 "Hg10 mi
1:30 AM75 °FPassing clouds.13 mph41%29.95 "HgN/A
1:00 AM75 °FClear.12 mph41%29.95 "Hg10 mi
12:30 AM77 °FClear.14 mph42%29.95 "Hg10 mi
12:00 AM77 °FClear.14 mph42%29.95 "Hg10 mi
11:30 PM
Aug 28
77 °FPassing clouds.14 mph42%29.92 "HgN/A
11:00 PM79 °FClear.14 mph39%29.92 "Hg10 mi
10:30 PM79 °FClear.14 mph39%29.92 "Hg10 mi
10:00 PM79 °FClear.10 mph42%29.92 "Hg10 mi
9:30 PM81 °FPassing clouds.10 mph39%29.92 "HgN/A
9:00 PM81 °FPassing clouds.13 mph39%29.89 "HgN/A
8:30 PM82 °FPassing clouds.13 mph37%29.89 "HgN/A
8:00 PM82 °FPassing clouds.12 mph37%29.89 "HgN/A
7:30 PM84 °FPassing clouds.9 mph35%29.89 "HgN/A
7:00 PM86 °FPassing clouds.12 mph33%29.86 "HgN/A
6:30 PM88 °FPassing clouds.6 mph33%29.86 "HgN/A
6:00 PM90 °FPassing clouds.3 mph31%29.86 "HgN/A
5:30 PM90 °FPassing clouds.5 mph29%29.86 "HgN/A
5:00 PM90 °FPassing clouds.7 mph29%29.86 "HgN/A
4:30 PM90 °FPassing clouds.6 mph29%29.86 "HgN/A
4:00 PM90 °FPassing clouds.9 mph29%29.86 "HgN/A
3:30 PM90 °FPassing clouds.6 mph29%29.86 "HgN/A
3:00 PM91 °FPassing clouds.6 mph28%29.86 "HgN/A
2:30 PM90 °FPassing clouds.5 mph29%29.89 "HgN/A
1:30 PM88 °FPassing clouds.8 mph31%29.89 "HgN/A
1:00 PM88 °FPassing clouds.10 mph31%29.89 "HgN/A
12:30 PM86 °FPassing clouds.9 mph33%29.89 "HgN/A
12:00 PM86 °FPassing clouds.12 mph33%29.92 "HgN/A
11:30 AM86 °FPassing clouds.12 mph33%29.92 "HgN/A
11:00 AM84 °FPassing clouds.12 mph37%29.92 "HgN/A
10:30 AM84 °FPassing clouds.13 mph37%29.92 "HgN/A
10:00 AM82 °FSunny.13 mph40%29.92 "Hg10 mi
9:30 AM82 °FSunny.13 mph40%29.92 "Hg10 mi
9:00 AM81 °FSunny.15 mph42%29.92 "Hg10 mi
8:30 AM81 °FPassing clouds.14 mph45%29.89 "HgN/A
8:00 AM79 °FPassing clouds.16 mph48%29.89 "HgN/A
7:30 AM77 °FPassing clouds.12 mph54%29.89 "HgN/A
7:00 AM75 °FPassing clouds.12 mph57%29.89 "HgN/A
6:30 AM73 °FPassing clouds.6 mph61%29.89 "HgN/A
6:00 AM72 °FPassing clouds.5 mph69%29.89 "HgN/A
5:30 AM72 °FPassing clouds.7 mph69%29.89 "HgN/A
5:00 AM72 °FPassing clouds.6 mph69%29.86 "HgN/A
4:30 AM73 °FClear.12 mph65%29.86 "Hg10 mi
4:00 AM72 °FClear.13 mph69%29.86 "Hg10 mi
3:30 AM72 °FPassing clouds.3 mph69%29.86 "HgN/A
3:00 AM73 °FPassing clouds.2 mph69%29.86 "HgN/A
Weather by CustomWeather, © 2014

See weather overviewHow to use our weather pages